Meteopurmerend
purmerend
Purmerend - Baaienwijk



My webcam  My webcam


waarschuwing voor Onweer Meer informatie blitzortung!


Regen radar Meer informatie rain snow radar


Bezoek onze andere website:

CandyAppleRed WebdesignWebdesign Purmerend Candy Apple Red

MeteopurmerendBlog

Template documentation
and downloads



Onweer van: 26-07-2021 13:00 tot: 21:00 waarschuwing voor: Onweer niveau: Geel info button
Enkele onweersbuien, lokaal met hagel en veel neerslag in korte tijd.Kans op blikseminslag, hagel en veel neerslag in korte tijd.Verkeer en buitenactiviteiten kunnen hinder ondervinden.Mijd open water en open gebied, schuil niet onder bomen.Volg weerberichten en waarschuwingen.

15 daagse weersverwachting Braine-l'Alleud (BE)

  • Overzicht
  • Per uur
  • 15 dagen
  • Extra
  • Vergelijk
  • Kaarten
  • Dagkaart
  • Meer »
  • Info
  • Statistieken
  • Directe link
    Temp 6h Neerslag Wind  
 06:03     21:36    Daglengte: 15:33 Vandaag
20:00
18°
7.6 mm
3
warningclass
 06:05     21:34    Daglengte: 15:29 Morgen
02:00
16°
 
3
08:00
16°
 
3
14:00
20°
2.1 mm
5
20:00
18°
6.3 mm
4
 06:06     21:33    Daglengte: 15:27 Woensdag 28 Jul
02:00
16°
 
4
08:00
15°
 
6
14:00
19°
26.6 mm
7
20:00
19°
26.5 mm
5
 06:08     21:31    Daglengte: 15:23 Donderdag 29 Jul
02:00
15°
33.6 mm
6
08:00
14°
8.5 mm
7
Locatie info
Region: Wallonia
Latitude: 50.6836°N
Longitude: 4.3678°E
93 masl
Temp/Neerslag /Baro Onweer/Dauwpunt
    Temp Baro 1h Neerslag Dauwpunt Wind UV Bewolking  
 06:03     21:36    Daglengte: 15:33 Vandaag
15:00
20°
1010.4 hPa 0.9 mm
48%
16.4°
5
Windvlaag: 4.7 m/s
69%
16:00
20°
1010.5 hPa 1.1 mm
80%
16.6°
5
Windvlaag: 4.9 m/s
86% warningclass
17:00
19°
1010.6 hPa 1.4 mm
80%
16.7°
4
Windvlaag: 4.8 m/s
69% warningclass
18:00
19°
1010.6 hPa 2.2 mm
82%
16.6°
4
Windvlaag: 3.3 m/s
71% warningclass
19:00
18°
1010.7 hPa 2.1 mm
82%
16.5°
3
Windvlaag: 2.9 m/s
55% warningclass
20:00
18°
1010.8 hPa
82%
16.1°
3
Windvlaag: 2 m/s
67% warningclass
21:00
18°
1011.2 hPa
82%
16.3°
2
Windvlaag: 1.8 m/s
51% warningclass
22:00
17°
1011.6 hPa
82%
16.2°
2
Windvlaag: 3 m/s
47%
23:00
17°
1012.0 hPa
76%
16.1°
2
Windvlaag: 4.1 m/s
59%
 06:05     21:34    Daglengte: 15:29 Morgen
00:00
17°
1012.2 hPa
82%
16.2°
3
Windvlaag: 4.2 m/s
57%
01:00
16°
1012.1 hPa
20%
15.6°
3
Windvlaag: 5.1 m/s
18%
02:00
16°
1012.2 hPa
14%
15.1°
3
Windvlaag: 5.4 m/s
47%
03:00
16°
1011.9 hPa
14%
14.9°
3
Windvlaag: 5 m/s
12%
04:00
15°
1011.8 hPa
14%
14.8°
3
Windvlaag: 5 m/s
79%
05:00
16°
1011.5 hPa
14%
14.6°
3
Windvlaag: 6.9 m/s
82%
06:00
16°
1011.2 hPa
14%
14.5°
3
Windvlaag: 6.9 m/s
70%
07:00
16°
1011.3 hPa
17%
14.8°
3
Windvlaag: 6.4 m/s
73%
08:00
16°
1011.3 hPa
19%
15.1°
3
Windvlaag: 5.8 m/s
78%
09:00
18°
1011.4 hPa
57%
15.4°
4
Windvlaag: 6.9 m/s
81%
10:00
18°
1011.6 hPa
14%
15.2°
4
Windvlaag: 6.6 m/s
85%
11:00
19°
1011.4 hPa
29%
15.3°
4
Windvlaag: 6.8 m/s
60%
12:00
20°
1011.3 hPa
80%
14.7°
4
Windvlaag: 6.2 m/s
56%
13:00
20°
1011.1 hPa 2.1 mm
82%
15.5°
4
Windvlaag: 5.6 m/s
59% warningclass
14:00
20°
1010.8 hPa
82%
17.1°
5
Windvlaag: 8.3 m/s
69%
15:00
20°
1010.8 hPa 2.6 mm
80%
17.0°
5
Windvlaag: 6.8 m/s
65%
16:00
19°
1010.5 hPa
76%
17.1°
4
Windvlaag: 5.3 m/s
56%
17:00
19°
1010.3 hPa
82%
15.2°
5
Windvlaag: 8.5 m/s
74%
18:00
19°
1010.2 hPa 3.7 mm
82%
14.8°
5
Windvlaag: 8.2 m/s
76%
19:00
19°
1010.0 hPa
82%
14.7°
4
Windvlaag: 7.3 m/s
61%
20:00
18°
1010.0 hPa
75%
15.7°
4
Windvlaag: 7 m/s
65%
21:00
17°
1010.1 hPa
80%
15.6°
4
Windvlaag: 6.3 m/s
59%
22:00
17°
1010.4 hPa
73%
15.5°
3
Windvlaag: 7.6 m/s
68%
23:00
17°
1010.7 hPa
63%
15.1°
4
Windvlaag: 7.8 m/s
57%
 06:06     21:33    Daglengte: 15:27 Woensdag 28 Jul
00:00
16°
1010.5 hPa
27%
15.2°
4
Windvlaag: 8.1 m/s
68%
01:00
16°
1010.3 hPa
27%
15.3°
4
Windvlaag: 8.6 m/s
72%
02:00
16°
1010.0 hPa
17%
15.3°
4
Windvlaag: 8.6 m/s
36%
03:00
16°
1009.8 hPa
26%
15.3°
4
Windvlaag: 7.9 m/s
64%
04:00
16°
1009.7 hPa
75%
14.7°
5
Windvlaag: 8.6 m/s
56%
05:00
16°
1009.5 hPa
69%
13.8°
4
Windvlaag: 8.5 m/s
61%
06:00
15°
1009.6 hPa
18%
13.3°
5
Windvlaag: 8.6 m/s
22%
07:00
15°
1009.8 hPa
64%
13.4°
6
Windvlaag: 8.5 m/s
79%
08:00
15°
1009.9 hPa
69%
13.5°
6
Windvlaag: 9.2 m/s
65%
09:00
15°
1010.0 hPa
22%
13.6°
6
Windvlaag: 9.4 m/s
50%
10:00
16°
1010.2 hPa
52%
13.9°
7
Windvlaag: 9.9 m/s
13%
11:00
17°
1010.0 hPa 6.6 mm
22%
13.2°
7
Windvlaag: 9.7 m/s
60%
12:00
18°
1010.1 hPa 6.5 mm
23%
13.4°
7
Windvlaag: 9.7 m/s
40%
13:00
19°
1009.9 hPa 6.9 mm
25%
13.8°
8
Windvlaag: 8.8 m/s
73%
14:00
19°
1010.1 hPa 6.5 mm
83%
12.4°
7
Windvlaag: 8.5 m/s
38%
15:00
19°
1010.3 hPa 4.0 mm
94%
12.8°
7
Windvlaag: 9.2 m/s
54%
16:00
18°
1010.5 hPa 4.6 mm
98%
14.8°
6
Windvlaag: 9.2 m/s
61%
17:00
19°
1010.4 hPa 4.1 mm
100%
12.9°
6
Windvlaag: 8.9 m/s
71%
18:00
19°
1010.2 hPa
100%
12.9°
7
Windvlaag: 8.8 m/s
9%
19:00
19°
1009.9 hPa 6.8 mm
44%
13.1°
6
Windvlaag: 7.1 m/s
63%
20:00
19°
1009.8 hPa 7.1 mm
22%
14.1°
5
Windvlaag: 6.7 m/s
16%
21:00
18°
1009.9 hPa 7.0 mm
22%
13.8°
4
Windvlaag: 5.7 m/s
28%
22:00
16°
1010.1 hPa 8.3 mm
21%
14.9°
4
Windvlaag: 6.5 m/s
87%
23:00
16°
1010.4 hPa 9.9 mm
21%
13.4°
5
Windvlaag: 6.9 m/s
80%
 06:08     21:31    Daglengte: 15:23 Donderdag 29 Jul
00:00
16°
1010.2 hPa 8.4 mm
21%
12.6°
5
Windvlaag: 7.8 m/s
81%
01:00
15°
1010.1 hPa
21%
12.0°
5
Windvlaag: 9.1 m/s
56%
02:00
15°
1009.8 hPa
21%
12.1°
6
Windvlaag: 10.5 m/s
77%
03:00
14°
1009.5 hPa
21%
11.7°
6
Windvlaag: 10.5 m/s
90%
04:00
14°
1009.3 hPa
21%
11.4°
6
Windvlaag: 10.5 m/s
92%
05:00
14°
1009.3 hPa
23%
11.7°
6
Windvlaag: 10 m/s
57%
06:00
14°
1009.6 hPa 8.5 mm
21%
11.9°
6
Windvlaag: 9.9 m/s
51%
07:00
13°
1009.8 hPa
21%
11.6°
6
Windvlaag: 9.6 m/s
60%
08:00
14°
1010.1 hPa
21%
11.2°
7
Windvlaag: 10.1 m/s
39%
09:00
15°
1011.5 hPa
21%
11.7°
7
Windvlaag: 13.6 m/s
62%
10:00
16°
1011.7 hPa
21%
11.8°
7
Windvlaag: 12.8 m/s
23%
11:00
17°
1012.0 hPa
22%
10.8°
7
Windvlaag: 12.3 m/s
74%
12:00
18°
1012.0 hPa
28%
9.6°
7
Windvlaag: 12.7 m/s
21%
13:00
18°
1012.2 hPa
21%
9.2°
7
Windvlaag: 13.3 m/s
87%
14:00
19°
1012.0 hPa
21%
10.1°
7
Windvlaag: 13.2 m/s
65%
Temp/Neerslag /Baro Onweer/Dauwpunt
    Temp Baro Neerslag Dauwpunt Wind Bewolking  
 06:03     21:36    Daglengte: 15:33 Vandaag
17:00
19°
1010.6 hPa 3.3 mm 16.7°
4
69% warningclass
20:00
18°
1010.8 hPa 4.3 mm 16.1°
3
67% warningclass
23:00
17°
1012.0 hPa   16.1°
2
59%
 06:05     21:34    Daglengte: 15:29 Morgen
02:00
16°
1012.2 hPa   15.1°
3
47%
05:00
16°
1011.5 hPa   14.6°
3
82%
08:00
16°
1011.3 hPa   15.1°
3
78%
11:00
19°
1011.4 hPa   15.3°
4
60%
14:00
20°
1010.8 hPa 2.1 mm 17.1°
5
69%
17:00
19°
1010.3 hPa 2.6 mm 15.2°
5
74%
20:00
18°
1010.0 hPa 3.7 mm 15.7°
4
65%
23:00
17°
1010.7 hPa   15.1°
4
57%
 06:06     21:33    Daglengte: 15:27 Woensdag 28 Jul
02:00
16°
1010.0 hPa   15.3°
4
36%
05:00
16°
1009.5 hPa   13.8°
4
61%
08:00
15°
1009.9 hPa   13.5°
6
65%
11:00
17°
1010.0 hPa 6.6 mm 13.2°
7
60%
14:00
19°
1010.1 hPa 20.0 mm 12.4°
7
38%
17:00
19°
1010.4 hPa 12.7 mm 12.9°
6
71%
20:00
19°
1009.8 hPa 13.9 mm 14.1°
5
16%
23:00
16°
1010.4 hPa 25.3 mm 13.4°
5
80%
 06:08     21:31    Daglengte: 15:23 Donderdag 29 Jul
02:00
15°
1009.8 hPa 8.4 mm 12.1°
6
77%
05:00
14°
1009.3 hPa   11.7°
6
57%
08:00
14°
1010.1 hPa 8.5 mm 11.2°
7
39%
11:00
17°
1012.0 hPa   10.8°
7
74%
14:00
19°
1012.0 hPa   10.1°
7
65%
17:00
20°
1012.6 hPa 16.6 mm 11.3°
6
1%
20:00
17°
1012.6 hPa 16.6 mm 10.8°
5
1%
23:00
13°
1013.1 hPa 16.6 mm 9.7°
4
1%
 06:09     21:30    Daglengte: 15:21 Vrijdag 30 Jul
02:00
12°
1013.0 hPa 16.6 mm 9.5°
4
0%
05:00
11°
1012.6 hPa 16.6 mm 9.3°
4
0%
08:00
13°
1012.5 hPa 16.6 mm 10.5°
3
0%
11:00
18°
1011.9 hPa 16.6 mm 11.0°
4
1%
14:00
22°
1010.5 hPa 16.6 mm 12.8°
4
1%
17:00
23°
1008.8 hPa 16.6 mm 14.0°
4
1%
20:00
20°
1007.9 hPa 17.3 mm 15.4°
3
1%
23:00
16°
1008.8 hPa 17.7 mm 14.4°
2
1%
 06:10     21:28    Daglengte: 15:18 Zaterdag 31 Jul
02:00
14°
1008.6 hPa 18.0 mm 13.3°
3
1%
05:00
12°
1007.5 hPa 18.0 mm 10.5°
3
0%
08:00
14°
1006.7 hPa 18.0 mm 11.8°
6
0%
11:00
14°
1006.2 hPa 18.7 mm 12.6°
8
1%
14:00
17°
1006.1 hPa 19.7 mm 12.5°
9
1%
17:00
19°
1006.6 hPa 20.9 mm 12.8°
8
0%
20:00
18°
1008.1 hPa 21.3 mm 12.8°
5
0%
23:00
14°
1009.2 hPa 21.3 mm 12.3°
4
0%
 06:12     21:27    Daglengte: 15:15 Zondag 01 Aug
02:00
13°
1008.9 hPa 21.3 mm 11.7°
4
0%
05:00
12°
1008.2 hPa 21.3 mm 11.3°
5
0%
08:00
14°
1008.1 hPa 21.3 mm 12.3°
5
0%
11:00
16°
1008.6 hPa 21.8 mm 12.1°
6
1%
14:00
18°
1009.4 hPa 22.2 mm 9.7°
6
1%
17:00
18°
1010.1 hPa 22.4 mm 9.1°
7
1%
20:00
15°
1011.4 hPa 22.9 mm 11.2°
5
1%
23:00
13°
1013.4 hPa 23.0 mm 10.5°
2
1%
 06:13     21:25    Daglengte: 15:12 Maandag 02 Aug
02:00
11°
1014.5 hPa 23.0 mm 9.6°
2
0%
05:00
10°
1015.0 hPa 23.0 mm 8.9°
2
0%
08:00
12°
1016.0 hPa 23.0 mm 9.9°
2
0%
11:00
15°
1016.9 hPa 23.0 mm 11.2°
2
1%
14:00
19°
1016.2 hPa 46.0 mm 10.3°
1
1%
20:00
17°
1015.6 hPa 47.7 mm 12.2°
2
1%
 06:15     21:23    Daglengte: 15:08 Dinsdag 03 Aug
02:00
12°
1016.3 hPa 49.4 mm 10.2°
2
0%
08:00
12°
1017.1 hPa 49.4 mm 10.2°
3
1%
14:00
20°
1016.4 hPa 49.4 mm 9.9°
4
0%
20:00
19°
1015.0 hPa 49.4 mm 12.7°
3
1%
 06:16     21:22    Daglengte: 15:06 Woensdag 04 Aug
02:00
14°
1014.3 hPa 49.4 mm 9.5°
4
1%
08:00
15°
1012.9 hPa 49.4 mm 10.3°
5
1%
14:00
21°
1011.4 hPa 49.4 mm 13.1°
7
1%
20:00
19°
1010.7 hPa 49.9 mm 13.2°
6
1%
 06:18     21:20    Daglengte: 15:02 Donderdag 05 Aug
02:00
14°
1011.3 hPa 50.2 mm 11.8°
5
0%
08:00
14°
1010.1 hPa 50.2 mm 12.0°
5
1%
14:00
20°
1013.5 hPa 1.6 mm 12.6°
3
60%
20:00
19°
1012.8 hPa 1.5 mm 13.3°
2
60%
 06:19     21:18    Daglengte: 14:59 Vrijdag 06 Aug
02:00
15°
1013.3 hPa 0.5 mm 12.1°
3
58%
08:00
15°
1013.0 hPa 0.6 mm 12.1°
4
52%
14:00
20°
1013.2 hPa 0.1 mm 12.5°
5
50%
20:00
19°
1013.2 hPa 1.3 mm 12.5°
4
47%
 06:21     21:17    Daglengte: 14:56 Zaterdag 07 Aug
02:00
15°
1014.2 hPa 0.2 mm 11.7°
3
44%
08:00
15°
1013.9 hPa 0.7 mm 11.8°
3
52%
14:00
20°
1013.6 hPa 1.2 mm 12.4°
4
54%
20:00
19°
1013.2 hPa 1.5 mm 13.4°
3
60%
 06:22     21:15    Daglengte: 14:53 Zondag 08 Aug
02:00
15°
1014.0 hPa 0.8 mm 12.3°
3
53%
08:00
15°
1013.9 hPa 0.4 mm 12.3°
3
61%
14:00
20°
1014.1 hPa 0.2 mm 13.1°
4
64%
20:00
19°
1014.1 hPa 1.2 mm 13.0°
3
64%
 06:24     21:13    Daglengte: 14:49 Maandag 09 Aug
02:00
15°
1015.8 hPa 0.2 mm 11.7°
2
43%
08:00
15°
1016.4 hPa 0.3 mm 11.7°
3
40%
14:00
21°
1016.9 hPa 0.7 mm 12.1°
3
48%
20:00
20°
1016.6 hPa 0.8 mm 13.0°
2
52%
 06:25     21:11    Daglengte: 14:46 Dinsdag 10 Aug
02:00
15°
1017.7 hPa 0.3 mm 11.9°
2
48%
08:00
15°
1017.7 hPa 0.1 mm 11.9°
2
48%
14:00
21°
1017.8 hPa 0.4 mm 12.7°
3
55%
  CAPE Lifted Index Hail Supercell Tornado SRH 3km CL BTM PRES CL TOP PRES Swiss DWD icon SMHI TS
 06:03     21:36    Daglengte: 15:33 Vandaag
15:00 770 J/kg -2.4 K 0 % 0 % 0 % 0 m²/s² 0 0 -1.83 95
16:00 807 J/kg -2.6 K 0 % 0 % 0 % 0 m²/s² 0 0 -2.03 95
17:00 516 J/kg -2.2 K 0 % 0 % 0 % 0 m²/s² 0 0 -2.2 95
18:00 514 J/kg -2.3 K 0 % 0 % 0 % 0 m²/s² 0 0 -1.88 95
19:00 298 J/kg -2.0 K 0 % 0 % 0 % 0 m²/s² 0 0 -1.19 95
20:00 594 J/kg -2.5 K 0 % 0 % 0 % 0 m²/s² 0 0 -1.75 95
21:00 744 J/kg -2.9 K 0 % 0 % 0 % 0 m²/s² 0 0 -2.06 95
22:00 574 J/kg -2.5 K 0 % 0 % 0 % 0 m²/s² 0 0 -1.21 80
23:00 487 J/kg -2.1 K 0 % 0 % 0 % 0 m²/s² 0 0 0.09 3
 06:05     21:34    Daglengte: 15:29 Morgen
00:00 464 J/kg -2.2 K 0 % 0 % 0 % 0 m²/s² 0 0 -0.07 80
01:00 318 J/kg -1.9 K 0 % 0 % 0 % 0 m²/s² 0 0 0.8 2
02:00 15 J/kg -0.6 K 0 % 0 % 0 % 0 m²/s² 0 0 2.43 2
03:00 3 J/kg -0.3 K 0 % 0 % 0 % 0 m²/s² 0 0 2.97 2
04:00 0 J/kg -1.3 K 0 % 0 % 0 % 0 m²/s² 0 0 2.45 3
05:00 0 J/kg -2.3 K 0 % 0 % 0 % 0 m²/s² 0 0 1.24 3
06:00 0 J/kg -2.6 K 0 % 0 % 0 % 0 m²/s² 0 0 1.12 3
07:00 0 J/kg -1.2 K 0 % 0 % 0 % 0 m²/s² 0 0 2.07 3
08:00 21 J/kg -1.1 K 0 % 0 % 0 % 0 m²/s² 0 0 1.42 3
09:00 205 J/kg -1.3 K 0 % 0 % 0 % 0 m²/s² 0 0 0.38 3
10:00 435 J/kg -1.9 K 0 % 0 % 0 % 0 m²/s² 0 0 -0.73 3
11:00 645 J/kg -2.8 K 0 % 0 % 0 % 0 m²/s² 0 0 -2.32 3
12:00 791 J/kg -3.1 K 0 % 0 % 0 % 0 m²/s² 0 0 -2.68 3
13:00 703 J/kg -2.8 K 0 % 0 % 0 % 0 m²/s² 0 0 -2.47 95
14:00 415 J/kg -1.5 K 0 % 0 % 0 % 0 m²/s² 0 0 -0.66 80
15:00 436 J/kg -1.4 K 0 % 0 % 0 % 0 m²/s² 0 0 -0.92 3
16:00 568 J/kg -1.6 K 0 % 0 % 0 % 0 m²/s² 0 0 -1.36 3
17:00 712 J/kg -2.3 K 0 % 0 % 0 % 0 m²/s² 0 0 -1.7 3
18:00 581 J/kg -1.8 K 0 % 0 % 0 % 0 m²/s² 0 0 -1.47 80
19:00 344 J/kg -1.3 K 0 % 0 % 0 % 0 m²/s² 0 0 -0.7 3
20:00 441 J/kg -1.8 K 0 % 0 % 0 % 0 m²/s² 0 0 -1.77 3
21:00 322 J/kg -1.7 K 0 % 0 % 0 % 0 m²/s² 0 0 -0.71 3
22:00 428 J/kg -2.0 K 0 % 0 % 0 % 0 m²/s² 0 0 -1.43 3
23:00 428 J/kg -1.9 K 0 % 0 % 0 % 0 m²/s² 0 0 -0.55 3
 06:06     21:33    Daglengte: 15:27 Woensdag 28 Jul
00:00 250 J/kg -1.2 K 0 % 0 % 0 % 0 m²/s² 0 0 0.27 3
01:00 3 J/kg 0.6 K 0 % 0 % 0 % 0 m²/s² 0 0 2.1 3
02:00 0 J/kg 0.1 K 0 % 0 % 0 % 0 m²/s² 0 0 2.59 3
03:00 32 J/kg 0.0 K 0 % 0 % 0 % 0 m²/s² 0 0 2.34 3
04:00 0 J/kg 1.2 K 0 % 0 % 0 % 0 m²/s² 0 0 3.69 3
05:00 0 J/kg 3.7 K 0 % 0 % 0 % 0 m²/s² 0 0 6.19 3
06:00 0 J/kg 2.8 K 0 % 0 % 0 % 0 m²/s² 0 0 5.14 2
07:00 0 J/kg 3.5 K 0 % 0 % 0 % 0 m²/s² 0 0 5.9 3
08:00 0 J/kg 4.5 K 0 % 0 % 0 % 0 m²/s² 0 0 7.62 3
09:00 0 J/kg 3.5 K 0 % 0 % 0 % 0 m²/s² 0 0 6.95 3
10:00 23 J/kg 2.4 K 0 % 0 % 0 % 0 m²/s² 0 0 5.85 2
11:00 74 J/kg 1.6 K 0 % 0 % 0 % 0 m²/s² 0 0 4.48 2
12:00 105 J/kg 1.1 K 0 % 0 % 0 % 0 m²/s² 0 0 3.59 2
13:00 138 J/kg 1.0 K 0 % 0 % 0 % 0 m²/s² 0 0 3.85 3
14:00 204 J/kg 0.5 K 0 % 0 % 0 % 0 m²/s² 0 0 3.59 3
15:00 191 J/kg 0.4 K 0 % 0 % 0 % 0 m²/s² 0 0 3.4 2
16:00 198 J/kg 0.2 K 0 % 0 % 0 % 0 m²/s² 0 0 2.96 80
17:00 293 J/kg -0.3 K 0 % 0 % 0 % 0 m²/s² 0 0 2.79 80
18:00 259 J/kg 0.3 K 0 % 0 % 0 % 0 m²/s² 0 0 3.81 2
19:00 202 J/kg 1.1 K 0 % 0 % 0 % 0 m²/s² 0 0 2.09 2
20:00 179 J/kg 1.8 K 0 % 0 % 0 % 0 m²/s² 0 0 4.47 2
21:00 194 J/kg 2.0 K 0 % 0 % 0 % 0 m²/s² 0 0 3.8 2
22:00 101 J/kg 3.4 K 0 % 0 % 0 % 0 m²/s² 0 0 5.2 2
23:00 4 J/kg 4.8 K 0 % 0 % 0 % 0 m²/s² 0 0 6.18 2
 06:08     21:31    Daglengte: 15:23 Donderdag 29 Jul
00:00 0 J/kg 7.0 K 0 % 0 % 0 % 0 m²/s² 0 0 7.69 2
01:00 0 J/kg 6.8 K 0 % 0 % 0 % 0 m²/s² 0 0 9.95 2
02:00 44 J/kg 6.3 K 0 % 0 % 0 % 0 m²/s² 0 0 11.61 2
03:00 21 J/kg 7.4 K 0 % 0 % 0 % 0 m²/s² 0 0 13.01 2
04:00 13 J/kg 8.4 K 0 % 0 % 0 % 0 m²/s² 0 0 14.49 3
05:00 21 J/kg 8.9 K 0 % 0 % 0 % 0 m²/s² 0 0 15.35 3
06:00 19 J/kg 9.3 K 0 % 0 % 0 % 0 m²/s² 0 0 15.39 3
07:00 32 J/kg 9.7 K 0 % 0 % 0 % 0 m²/s² 0 0 14.83 3
08:00 63 J/kg 9.6 K 0 % 0 % 0 % 0 m²/s² 0 0 14.1 2
09:00 101 J/kg 8.6 K 0 % 0 % 0 % 0 m²/s² 0 0 15.17 3
10:00 139 J/kg 7.7 K 0 % 0 % 0 % 0 m²/s² 0 0 14.06 2
11:00 104 J/kg 7.5 K 0 % 0 % 0 % 0 m²/s² 0 0 13.5 3
12:00 61 J/kg 7.1 K 0 % 0 % 0 % 0 m²/s² 0 0 12.05 3
13:00 63 J/kg 6.0 K 0 % 0 % 0 % 0 m²/s² 0 0 10.38 3
14:00 76 J/kg 4.5 K 0 % 0 % 0 % 0 m²/s² 0 0 9.09 3
Temp Baro Wind Neerslag
  EWN Forecast EWN WRFDA DWD ICON FMI HIRLAM MET Norway GFS
 06:03     21:36    Daglengte: 15:33 Vandaag
17:00 19.0° 1010.6 hPa 4.5 m/s 3.3 mm 18.3° 1010.2 hPa 6.3 m/s 1.9 mm 19.0° 1010.8 hPa 4.3 m/s 4.0 mm 20.4° 1009.5 hPa 4.7 m/s 0.0 mm 20.1° 1010.4 hPa 5.9 m/s
20:00 18.3° 1010.8 hPa 2.7 m/s 4.3 mm 19.1° 1010.0 hPa 3.5 m/s 22.8 mm 18.0° 1011.1 hPa 2.6 m/s 3.5 mm 19.4° 1009.8 hPa 3.2 m/s 0.0 mm 18.5° 1010.6 hPa 3.6 m/s
23:00 16.7° 1012.0 hPa 2.4 m/s 0.0 mm 17.1° 1010.5 hPa 2.8 m/s 22.9 mm 16.6° 1012.5 hPa 2.3 m/s 1.6 mm 17.3° 1011.4 hPa 2.3 m/s 0.0 mm 16.1° 1011.5 hPa 2.8 m/s
 06:05     21:34    Daglengte: 15:29 Morgen
02:00 16.2° 1012.2 hPa 3.2 m/s 0.0 mm 15.0° 1010.7 hPa 3.3 m/s 23.0 mm 16.1° 1012.5 hPa 3.1 m/s 0.2 mm 16.4° 1011.4 hPa 2.9 m/s 0.0 mm 14.8° 1012.1 hPa 3.1 m/s
05:00 15.5° 1011.5 hPa 3.4 m/s 0.0 mm 15.2° 1009.9 hPa 3.7 m/s 23.0 mm 15.6° 1012.0 hPa 2.8 m/s 0.0 mm 15.1° 1010.7 hPa 3.4 m/s 0.0 mm 14.3° 1011.5 hPa 3.2 m/s
08:00 16.4° 1011.3 hPa 3.2 m/s 0.0 mm 16.8° 1010.0 hPa 4.3 m/s 23.0 mm 16.6° 1012.0 hPa 3.1 m/s 0.0 mm 16.3° 1010.6 hPa 3.5 m/s 0.0 mm 15.7° 1011.1 hPa 3.0 m/s
11:00 19.3° 1011.4 hPa 4.5 m/s 0.0 mm 20.4° 1010.5 hPa 4.2 m/s 23.0 mm 19.1° 1011.7 hPa 4.1 m/s 0.0 mm 20.4° 1010.6 hPa 4.5 m/s 0.0 mm 19.9° 1011.0 hPa 3.7 m/s
14:00 19.9° 1010.8 hPa 5.1 m/s 2.1 mm 20.6° 1010.4 hPa 5.1 m/s 25.2 mm 19.1° 1011.8 hPa 4.2 m/s 1.7 mm 20.4° 1009.7 hPa 5.7 m/s 0.0 mm 18.2° 1011.0 hPa 3.8 m/s
17:00 19.4° 1010.3 hPa 4.8 m/s 2.6 mm 20.6° 1009.4 hPa 1.3 m/s 43.1 mm 19.3° 1011.0 hPa 4.3 m/s 0.4 mm 19.8° 1008.9 hPa 5.3 m/s 0.0 mm 20.9° 1010.1 hPa 4.5 m/s
20:00 18.1° 1010.0 hPa 4.1 m/s 3.7 mm 18.3° 1009.4 hPa 5.6 m/s 52.3 mm 18.0° 1010.5 hPa 3.8 m/s 0.5 mm 18.9° 1009.3 hPa 4.3 m/s 0.0 mm 17.0° 1009.8 hPa 5.2 m/s
23:00 16.5° 1010.7 hPa 3.6 m/s 0.0 mm 16.4° 1009.5 hPa 2.2 m/s 55.9 mm 16.5° 1010.6 hPa 3.5 m/s 0.1 mm 17.4° 1010.9 hPa 3.3 m/s 0.0 mm 15.1° 1011.1 hPa 4.5 m/s
 06:06     21:33    Daglengte: 15:27 Woensdag 28 Jul
02:00 16.0° 1010.0 hPa 3.9 m/s 0.0 mm 15.5° 1008.9 hPa 4.1 m/s 56.3 mm 16.2° 1009.4 hPa 4.0 m/s 0.0 mm 16.0° 1010.9 hPa 1.9 m/s 0.0 mm 14.6° 1010.2 hPa 5.4 m/s
05:00 15.5° 1009.5 hPa 4.5 m/s 0.0 mm 14.0° 1008.6 hPa 4.3 m/s 56.3 mm 15.9° 1009.0 hPa 4.3 m/s 0.1 mm 15.7° 1010.4 hPa 4.3 m/s 0.0 mm 14.9° 1010.1 hPa 5.0 m/s
08:00 15.2° 1009.9 hPa 6.2 m/s 0.0 mm 14.5° 1009.2 hPa 5.9 m/s 56.3 mm 15.7° 1009.1 hPa 6.8 m/s 0.0 mm 14.8° 1011.0 hPa 6.1 m/s 0.0 mm 14.4° 1010.8 hPa 5.8 m/s
11:00 17.4° 1010.0 hPa 7.3 m/s 6.6 mm 18.3° 1008.9 hPa 7.3 m/s 56.3 mm 17.2° 1010.5 hPa 7.6 m/s 0.0 mm 17.6° 1010.8 hPa 7.5 m/s
14:00 18.5° 1010.1 hPa 7.0 m/s 20.0 mm 20.3° 1009.4 hPa 7.0 m/s 56.3 mm 18.6° 1010.1 hPa 7.5 m/s 0.0 mm 19.5° 1011.2 hPa 7.3 m/s
17:00 19.1° 1010.4 hPa 6.4 m/s 12.7 mm 20.8° 1009.3 hPa 5.9 m/s 57.9 mm 19.0° 1010.6 hPa 6.2 m/s 0.7 mm 19.9° 1010.5 hPa 7.9 m/s
20:00 18.6° 1009.8 hPa 4.5 m/s 13.9 mm 18.9° 1008.7 hPa 3.8 m/s 60.1 mm 19.0° 1009.9 hPa 5.6 m/s 0.0 mm 17.5° 1009.8 hPa 5.7 m/s
23:00 15.8° 1010.4 hPa 4.8 m/s 25.3 mm 15.7° 1009.5 hPa 4.3 m/s 70.0 mm 16.4° 1010.6 hPa 4.6 m/s 0.0 mm 15.6° 1010.2 hPa 5.4 m/s
 06:08     21:31    Daglengte: 15:23 Donderdag 29 Jul
02:00 14.8° 1009.8 hPa 5.5 m/s 8.4 mm 15.1° 1008.5 hPa 4.7 m/s 74.8 mm 15.0° 1010.6 hPa 5.3 m/s 0.0 mm 13.8° 1010.2 hPa 6.5 m/s
05:00 13.9° 1009.3 hPa 6.1 m/s 0.0 mm 13.2° 1008.4 hPa 5.0 m/s 75.0 mm 14.1° 1010.9 hPa 6.0 m/s 0.0 mm 12.0° 1010.6 hPa 6.5 m/s
08:00 13.9° 1010.1 hPa 6.8 m/s 8.5 mm 13.9° 1008.8 hPa 6.9 m/s 75.0 mm 14.2° 1011.8 hPa 5.7 m/s 0.0 mm 12.8° 1011.1 hPa 7.2 m/s
11:00 16.6° 1012.0 hPa 6.8 m/s 0.0 mm 17.0° 1009.4 hPa 8.3 m/s 75.0 mm 16.5° 1012.6 hPa 6.5 m/s 0.0 mm 16.8° 1012.4 hPa 8.5 m/s
14:00 18.7° 1012.0 hPa 7.1 m/s 0.0 mm 18.8° 1009.8 hPa 9.1 m/s 75.0 mm 18.7° 1012.5 hPa 6.6 m/s 0.0 mm 18.1° 1012.9 hPa 6.9 m/s
17:00 19.7° 1012.6 hPa 6.4 m/s 16.6 mm 19.7° 1012.6 hPa 6.4 m/s 16.6 mm
20:00 17.4° 1012.6 hPa 5.4 m/s 16.6 mm 17.4° 1012.6 hPa 5.4 m/s 16.6 mm
23:00 13.4° 1013.1 hPa 3.6 m/s 16.6 mm 13.4° 1013.1 hPa 3.6 m/s 16.6 mm
 06:09     21:30    Daglengte: 15:21 Vrijdag 30 Jul
02:00 12.0° 1013.0 hPa 3.7 m/s 16.6 mm 12.0° 1013.0 hPa 3.7 m/s 16.6 mm
05:00 11.1° 1012.6 hPa 3.6 m/s 16.6 mm 11.1° 1012.6 hPa 3.6 m/s 16.6 mm
08:00 13.3° 1012.5 hPa 3.5 m/s 16.6 mm 13.3° 1012.5 hPa 3.5 m/s 16.6 mm
11:00 18.0° 1011.9 hPa 3.6 m/s 16.6 mm 18.0° 1011.9 hPa 3.6 m/s 16.6 mm
14:00 21.6° 1010.5 hPa 3.7 m/s 16.6 mm 21.6° 1010.5 hPa 3.7 m/s 16.6 mm
17:00 22.9° 1008.8 hPa 4.5 m/s 16.6 mm 22.9° 1008.8 hPa 4.5 m/s 16.6 mm
20:00 20.1° 1007.9 hPa 3.4 m/s 17.3 mm 20.1° 1007.9 hPa 3.4 m/s 17.3 mm
23:00 15.5° 1008.8 hPa 2.0 m/s 17.7 mm 15.5° 1008.8 hPa 2.0 m/s 17.7 mm
 06:10     21:28    Daglengte: 15:18 Zaterdag 31 Jul
02:00 14.0° 1008.6 hPa 3.1 m/s 18.0 mm 14.0° 1008.6 hPa 3.1 m/s 18.0 mm
05:00 12.2° 1007.5 hPa 3.5 m/s 18.0 mm 12.2° 1007.5 hPa 3.5 m/s 18.0 mm
08:00 13.9° 1006.7 hPa 6.2 m/s 18.0 mm 13.9° 1006.7 hPa 6.2 m/s 18.0 mm
11:00 14.1° 1006.2 hPa 8.4 m/s 18.7 mm 14.1° 1006.2 hPa 8.4 m/s 18.7 mm
14:00 16.9° 1006.1 hPa 9.2 m/s 19.7 mm 16.9° 1006.1 hPa 9.2 m/s 19.7 mm
17:00 19.4° 1006.6 hPa 8.0 m/s 20.9 mm 19.4° 1006.6 hPa 8.0 m/s 20.9 mm
20:00 17.6° 1008.1 hPa 5.1 m/s 21.3 mm 17.6° 1008.1 hPa 5.1 m/s 21.3 mm
23:00 13.9° 1009.2 hPa 3.8 m/s 21.3 mm 13.9° 1009.2 hPa 3.8 m/s 21.3 mm
 06:12     21:27    Daglengte: 15:15 Zondag 01 Aug
02:00 12.8° 1008.9 hPa 4.4 m/s 21.3 mm 12.8° 1008.9 hPa 4.4 m/s 21.3 mm
05:00 12.3° 1008.2 hPa 5.0 m/s 21.3 mm 12.3° 1008.2 hPa 5.0 m/s 21.3 mm
08:00 13.6° 1008.1 hPa 5.5 m/s 21.3 mm 13.6° 1008.1 hPa 5.5 m/s 21.3 mm
11:00 16.4° 1008.6 hPa 6.2 m/s 21.8 mm 16.4° 1008.6 hPa 6.2 m/s 21.8 mm
14:00 18.0° 1009.4 hPa 6.3 m/s 22.2 mm 18.0° 1009.4 hPa 6.3 m/s 22.2 mm
17:00 18.2° 1010.1 hPa 6.6 m/s 22.4 mm 18.2° 1010.1 hPa 6.6 m/s 22.4 mm
20:00 15.4° 1011.4 hPa 4.8 m/s 22.9 mm 15.4° 1011.4 hPa 4.8 m/s 22.9 mm
23:00 12.7° 1013.4 hPa 2.3 m/s 23.0 mm 12.7° 1013.4 hPa 2.3 m/s 23.0 mm
 06:13     21:25    Daglengte: 15:12 Maandag 02 Aug
02:00 11.2° 1014.5 hPa 1.9 m/s 23.0 mm 11.2° 1014.5 hPa 1.9 m/s 23.0 mm
05:00 10.3° 1015.0 hPa 1.9 m/s 23.0 mm 10.3° 1015.0 hPa 1.9 m/s 23.0 mm
08:00 12.2° 1016.0 hPa 2.0 m/s 23.0 mm 12.2° 1016.0 hPa 2.0 m/s 23.0 mm
11:00 14.8° 1016.9 hPa 2.0 m/s 23.0 mm 14.8° 1016.9 hPa 2.0 m/s 23.0 mm
14:00 18.7° 1016.2 hPa 1.0 m/s 23.0 mm 18.7° 1016.2 hPa 1.0 m/s 23.0 mm
20:00 16.8° 1015.6 hPa 1.7 m/s 24.2 mm 16.8° 1015.6 hPa 1.7 m/s 24.2 mm
 06:15     21:23    Daglengte: 15:08 Dinsdag 03 Aug
02:00 11.9° 1016.3 hPa 1.8 m/s 24.7 mm 11.9° 1016.3 hPa 1.8 m/s 24.7 mm
08:00 12.1° 1017.1 hPa 3.2 m/s 24.7 mm 12.1° 1017.1 hPa 3.2 m/s 24.7 mm
14:00 20.3° 1016.4 hPa 3.9 m/s 24.7 mm 20.3° 1016.4 hPa 3.9 m/s 24.7 mm
20:00 19.1° 1015.0 hPa 3.4 m/s 24.7 mm 19.1° 1015.0 hPa 3.4 m/s 24.7 mm
 06:16     21:22    Daglengte: 15:06 Woensdag 04 Aug
02:00 14.0° 1014.3 hPa 3.6 m/s 24.7 mm 14.0° 1014.3 hPa 3.6 m/s 24.7 mm
08:00 14.6° 1012.9 hPa 4.7 m/s 24.7 mm 14.6° 1012.9 hPa 4.7 m/s 24.7 mm
14:00 20.8° 1011.4 hPa 7.0 m/s 24.7 mm 20.8° 1011.4 hPa 7.0 m/s 24.7 mm
20:00 18.9° 1010.7 hPa 5.9 m/s 25.1 mm 18.9° 1010.7 hPa 5.9 m/s 25.1 mm
 06:18     21:20    Daglengte: 15:02 Donderdag 05 Aug
02:00 13.6° 1011.3 hPa 5.0 m/s 25.1 mm 13.6° 1011.3 hPa 5.0 m/s 25.1 mm
08:00 13.7° 1010.1 hPa 4.9 m/s 25.1 mm 13.7° 1010.1 hPa 4.9 m/s 25.1 mm
14:00 20.0° 1013.5 hPa 3.3 m/s 1.6 mm
20:00 19.2° 1012.8 hPa 2.5 m/s 1.5 mm
 06:19     21:18    Daglengte: 14:59 Vrijdag 06 Aug
02:00 15.3° 1013.3 hPa 2.9 m/s 0.5 mm
08:00 14.8° 1013.0 hPa 3.8 m/s 0.6 mm
14:00 20.4° 1013.2 hPa 4.8 m/s 0.1 mm
20:00 18.9° 1013.2 hPa 3.5 m/s 1.3 mm
 06:21     21:17    Daglengte: 14:56 Zaterdag 07 Aug
02:00 14.7° 1014.2 hPa 3.0 m/s 0.2 mm
08:00 14.5° 1013.9 hPa 3.4 m/s 0.7 mm
14:00 20.3° 1013.6 hPa 4.2 m/s 1.2 mm
20:00 18.9° 1013.2 hPa 3.1 m/s 1.5 mm
 06:22     21:15    Daglengte: 14:53 Zondag 08 Aug
02:00 15.2° 1014.0 hPa 2.6 m/s 0.8 mm
08:00 15.0° 1013.9 hPa 3.3 m/s 0.4 mm
14:00 20.2° 1014.1 hPa 3.8 m/s 0.2 mm
20:00 19.2° 1014.1 hPa 2.8 m/s 1.2 mm
 06:24     21:13    Daglengte: 14:49 Maandag 09 Aug
02:00 14.9° 1015.8 hPa 2.2 m/s 0.2 mm
08:00 14.5° 1016.4 hPa 2.6 m/s 0.3 mm
14:00 20.9° 1016.9 hPa 3.2 m/s 0.7 mm
20:00 19.6° 1016.6 hPa 2.3 m/s 0.8 mm
 06:25     21:11    Daglengte: 14:46 Dinsdag 10 Aug
02:00 15.3° 1017.7 hPa 1.8 m/s 0.3 mm
08:00 15.1° 1017.7 hPa 2.1 m/s 0.1 mm
14:00 21.5° 1017.8 hPa 3.0 m/s 0.4 mm
FMI Hirlam - 7.5 km EWN WRFDA - 12 km DWD ICON - 7 km GFS - 25 km Basiskaart